Regional Weather Roundup
Issued by NWS

Home | Current Version | Previous Version | Text Only | Print | Product List | Glossary On
Versions: 1 2 3 4 5 6 7 8 9 10 11 12 13 14 15 16 17 18 19 20 21 22 23 24 25 26 27 28 29 30 31 32 33 34 35 36 37 38 39 40 41 42 43 44 45 46 47 48 49 50
000
ASUS44 KBMX 310310
RWRAL

ALABAMA REGIONAL WEATHER ROUNDUP
NATIONAL WEATHER SERVICE BIRMINGHAM AL
1000 PM CDT SUN AUG 30 2015

NOTE: "FAIR" INDICATES FEW OR NO CLOUDS BELOW 12,000 FEET
WITH NO SIGNIFICANT WEATHER AND/OR OBSTRUCTIONS TO VISIBILITY.

THE REMARK "TC" DENOTES TEMPERATURE IN DEGREES CELSIUS.

ALZ001>011-014-016>018-020-310400-
NORTH ALABAMA

CITY           SKY/WX    TMP DP  RH WIND       PRES   REMARKS
MUSCLE SHOALS  PTCLDY    68  64  87 CALM      30.10R
HUNTSVILLE     CLOUDY    75  67  76 E5        30.10R
DECATUR        CLOUDY    71  68  90 NE3       30.10S
HALEYVILLE     MOCLDY    66  66 100 CALM      30.12S
GADSDEN        MOCLDY    70  61  73 NE8       30.08F
$$

ALZ012-013-022-023-030>036-040>044-310400-
WEST CENTRAL ALABAMA

CITY           SKY/WX    TMP DP  RH WIND       PRES   REMARKS
TUSCALOOSA     CLEAR     70  67  90 NE5       30.07S
$$

ALZ015-024>027-033>036-040>044-310400-
CENTRAL ALABAMA

CITY           SKY/WX    TMP DP  RH WIND       PRES   REMARKS
BIRMINGHAM     MOCLDY    71  68  90 NE3       30.09F
MONTGOMERY     CLEAR     76  70  82 N3        30.05R
SHELBY CO ARPT MOCLDY    70  68  93 CALM      30.07S
MAXWELL AFB    CLEAR     75  71  89 N3        30.04R
GREENVILLE     FAIR      72  68  87 CALM      30.04S
$$

ALZ019-021-028-029-037-038-045>048-310400-
EAST CENTRAL ALABAMA

CITY           SKY/WX    TMP DP  RH WIND       PRES   REMARKS
ANNISTON       MOCLDY    71  66  84 NE5       30.09F
ALEXANDER CITY PTCLDY    74  72  91 CALM      30.08S
AUBURN         MOCLDY    73  70  90 NE7       30.08S
$$

ALZ051>064-310400-
SOUTHWEST ALABAMA

CITY           SKY/WX    TMP DP  RH WIND       PRES   REMARKS
MOBILE         PTCLDY    72  68  87 CALM      30.03R
BROOKLEY FIELD PTCLDY    74  69  85 CALM      30.03R
EVERGREEN      CLEAR     74  71  91 CALM      30.04S
$$

ALZ049-050-065>069-310400-
SOUTHEAST ALABAMA

CITY           SKY/WX    TMP DP  RH WIND       PRES   REMARKS
DOTHAN         CLEAR     75  70  84 NE5       30.07R
OZARK            N/A     77  68  72 N3        30.03R
TROY           CLEAR     71  69  93 CALM      30.05R
EUFAULA        FAIR      74  72  93 CALM      30.03R
$$



USA.gov is the U.S. government's official web portal to all federal, state and local government web resources and services.